Showing default

VRSS-1, 38782

Orbit data source: Space-Track

VRSS-1, 38782 is a payload satellite owned by ABAE (VE) in SSO that was launched on Sat, 29 Sep 2012 UTC via a CHANG ZHENG 2D launch vehicle from the Jiuquan Satellite Launch Center, China (JSC). Payload-class satellites include a variety of spacecraft equipped with specific instruments for various scientific and technological missions. These include communications satellites like Starlink; space stations such as the ISS; scientific satellites like the Hubble; Earth observation satellites from companies like Planet Labs, Umbra, and HawkEye 360; GPS; miniature CubeSats for education and research; and military/defense satellites.

Loading next visibility...
Identifier
38782, 2012-052A
Orbit
SSO
Country
Flag of UnknownUnknown / VENZ
Related business
Manufacturer
DFH
Mission
Operational Civil Imaging
Bus & Motor
CAST-2000, AOCS
Mass
880 kg wet, ~880 kg dry
Launch date (UTC)
2012-09-29 (13 years ago)
Launch vehicle
CHANG ZHENG 2D
Launch site
Jiuquan Satellite Launch Center, China (JSC)
Object type
Payload
Rocket body
Debris
Shape & HBR
Box + 2 Pan, 2.0 m
Radar Cross Section
4.991 m², Large (>1 m²)

Expand to show TLE details & history
Last TLE update: 9 hours ago

TLE from 9 hours ago
0 VRSS-1
1 38782U 12052A   25310.94897495  .00001753  00000-0  24116-3 0  9997
2 38782  97.5927 294.0958 0016450 241.1289 118.8273 14.79385882706748
Epoch: 2025-11-06T22:46Z
TLE epoch observation values (Epoch: 2025-11-06T22:46:31.435Z)
Latitude
-0.00005°
Longitude
-93.93513°
Altitude
639.868 km
Speed
7.535 km/s
True Right ascension
19h 36m 22s
True Declination
0° 00' 00"
Sunlit
Object was in daylight at epoch
Visualization orbit readout
Latitude
Unknown
Longitude
Unknown
Altitude
Unknown
Speed
Unknown
Apparent Right ascension
Unknown
Apparent Declination
Unknown
Sunlit
N/A
Visualization observer readout
Local Sidereal Time
04:05:44
Azimuth
Unknown
Elevation
Unknown
Doppler factor
Unknown
Orbital elements
Apogee altitude
639.817 km
Perigee altitude
616.766 km
Semi-major axis
7,006.428 km
Eccentricity
0.00165
Inclination
97.5927°
RAAN
294.0958°
Arg. of periapsis
241.1289°
True anomaly
118.99228°
Mean anomaly
118.8273°
Eccentric anomaly
118.90981°
Mean motion
3.70082 °/min
Orbital period
97.28 mins
BSTAR
0.00024116
Loading maneuver chart data...
Computing Atmospheric mass density...
Loading historical data...
Loading historical data...
Loading historical data...
Loading historical data...
Loading historical data...
Loading historical data...
Loading historical data...
Other satellites on launch #52 in the year 2012 (2012-09-29 UTC)

Documentation

Showing up to 5 results
|